Year,Month,Day,Hour,Minute,Value (Times are PST for temperature in C)
2016,03,28,00,00,3.60
2016,03,28,00,01,3.60
2016,03,28,00,02,3.60
2016,03,28,00,03,3.60
2016,03,28,00,04,3.60
2016,03,28,00,05,3.50
2016,03,28,00,06,3.50
2016,03,28,00,07,3.50
2016,03,28,00,08,3.50
2016,03,28,00,09,3.50
2016,03,28,00,10,3.50
2016,03,28,00,11,3.40
2016,03,28,00,12,3.40
2016,03,28,00,13,3.40
2016,03,28,00,14,3.40
2016,03,28,00,15,3.40
2016,03,28,00,16,3.40
2016,03,28,00,17,3.40
2016,03,28,00,18,3.40
2016,03,28,00,19,3.40
2016,03,28,00,20,3.40
2016,03,28,00,21,3.40
2016,03,28,00,22,3.30
2016,03,28,00,23,3.30
2016,03,28,00,24,3.30
2016,03,28,00,25,3.30
2016,03,28,00,26,3.30
2016,03,28,00,27,3.30
2016,03,28,00,28,3.20
2016,03,28,00,29,3.20
2016,03,28,00,30,3.20
2016,03,28,00,31,3.20
2016,03,28,00,32,3.20
2016,03,28,00,33,3.20
2016,03,28,00,34,3.20
2016,03,28,00,35,3.20
2016,03,28,00,36,3.10
2016,03,28,00,37,3.10
2016,03,28,00,38,3.10
2016,03,28,00,39,3.10
2016,03,28,00,40,3.10
2016,03,28,00,41,3.10
2016,03,28,00,42,3.10
2016,03,28,00,43,3.10
2016,03,28,00,44,3.00
2016,03,28,00,45,3.00
2016,03,28,00,46,3.00
2016,03,28,00,47,3.00
2016,03,28,00,48,3.00
2016,03,28,00,49,2.90
2016,03,28,00,50,2.90
2016,03,28,00,51,2.90
2016,03,28,00,52,2.90
2016,03,28,00,53,2.90
2016,03,28,00,54,2.80
2016,03,28,00,55,2.80
2016,03,28,00,56,2.80
2016,03,28,00,57,2.80
2016,03,28,00,58,2.80
2016,03,28,00,59,2.80
2016,03,28,01,00,2.80
2016,03,28,01,01,2.80
2016,03,28,01,02,2.80
2016,03,28,01,03,2.80
2016,03,28,01,04,2.80
2016,03,28,01,05,2.70
2016,03,28,01,06,2.70
2016,03,28,01,07,2.70
2016,03,28,01,08,2.70
2016,03,28,01,09,2.70
2016,03,28,01,10,2.70
2016,03,28,01,11,2.70
2016,03,28,01,12,2.70
2016,03,28,01,13,2.70
2016,03,28,01,14,2.70
2016,03,28,01,15,2.70
2016,03,28,01,16,2.70
2016,03,28,01,17,2.60
2016,03,28,01,18,2.60
2016,03,28,01,19,2.60
2016,03,28,01,20,2.60
2016,03,28,01,21,2.60
2016,03,28,01,22,2.50
2016,03,28,01,23,2.50
2016,03,28,01,24,2.50
2016,03,28,01,25,2.50
2016,03,28,01,26,2.50
2016,03,28,01,27,2.50
2016,03,28,01,28,2.50
2016,03,28,01,29,2.50
2016,03,28,01,30,2.40
2016,03,28,01,31,2.40
2016,03,28,01,32,2.40
2016,03,28,01,33,2.40
2016,03,28,01,34,2.40
2016,03,28,01,35,2.40
2016,03,28,01,36,2.40
2016,03,28,01,37,2.40
2016,03,28,01,38,2.30
2016,03,28,01,39,2.30
2016,03,28,01,40,2.30
2016,03,28,01,41,2.30
2016,03,28,01,42,2.30
2016,03,28,01,43,2.20
2016,03,28,01,44,2.20
2016,03,28,01,45,2.20
2016,03,28,01,46,2.20
2016,03,28,01,47,2.10
2016,03,28,01,48,2.10
2016,03,28,01,49,2.10
2016,03,28,01,50,2.10
2016,03,28,01,51,2.10
2016,03,28,01,52,2.10
2016,03,28,01,53,2.10
2016,03,28,01,54,2.10
2016,03,28,01,55,2.10
2016,03,28,01,56,2.10
2016,03,28,01,57,2.10
2016,03,28,01,58,2.00
2016,03,28,01,59,2.10
2016,03,28,02,00,2.00
2016,03,28,02,01,2.00
2016,03,28,02,02,2.00
2016,03,28,02,03,2.00
2016,03,28,02,04,2.00
2016,03,28,02,05,2.00
2016,03,28,02,06,2.00
2016,03,28,02,07,2.00
2016,03,28,02,08,2.00
2016,03,28,02,09,2.00
2016,03,28,02,10,2.00
2016,03,28,02,11,1.90
2016,03,28,02,12,1.90
2016,03,28,02,13,1.90
2016,03,28,02,14,1.90
2016,03,28,02,15,1.90
2016,03,28,02,16,1.90
2016,03,28,02,17,1.90
2016,03,28,02,18,1.90
2016,03,28,02,19,1.90
2016,03,28,02,20,2.00
2016,03,28,02,21,1.90
2016,03,28,02,22,2.00
2016,03,28,02,23,2.00
2016,03,28,02,24,2.00
2016,03,28,02,25,2.00
2016,03,28,02,26,2.00
2016,03,28,02,27,2.00
2016,03,28,02,28,2.00
2016,03,28,02,29,2.00
2016,03,28,02,30,2.00
2016,03,28,02,31,2.00
2016,03,28,02,32,2.00
2016,03,28,02,33,2.00
2016,03,28,02,34,2.00
2016,03,28,02,35,2.10
2016,03,28,02,36,2.10
2016,03,28,02,37,2.10
2016,03,28,02,38,2.10
2016,03,28,02,39,2.10
2016,03,28,02,40,2.10
2016,03,28,02,41,2.20
2016,03,28,02,42,2.20
2016,03,28,02,43,2.20
2016,03,28,02,44,2.30
2016,03,28,02,45,2.30
2016,03,28,02,46,2.30
2016,03,28,02,47,2.30
2016,03,28,02,48,2.30
2016,03,28,02,49,2.30
2016,03,28,02,50,2.30
2016,03,28,02,51,2.30
2016,03,28,02,52,2.30
2016,03,28,02,53,2.30
2016,03,28,02,54,2.30
2016,03,28,02,55,2.30
2016,03,28,02,56,2.30
2016,03,28,02,57,2.30
2016,03,28,02,58,2.30
2016,03,28,02,59,2.30
2016,03,28,03,00,2.30
2016,03,28,03,01,2.30
2016,03,28,03,02,2.40
2016,03,28,03,03,2.40
2016,03,28,03,04,2.40
2016,03,28,03,05,2.40
2016,03,28,03,06,2.40
2016,03,28,03,07,2.40
2016,03,28,03,08,2.40
2016,03,28,03,09,2.40
2016,03,28,03,10,2.40
2016,03,28,03,11,2.40
2016,03,28,03,12,2.40
2016,03,28,03,13,2.40
2016,03,28,03,14,2.40
2016,03,28,03,15,2.40
2016,03,28,03,16,2.40
2016,03,28,03,17,2.40
2016,03,28,03,18,2.40
2016,03,28,03,19,2.40
2016,03,28,03,20,2.40
2016,03,28,03,21,2.40
2016,03,28,03,22,2.50
2016,03,28,03,23,2.50
2016,03,28,03,24,2.50
2016,03,28,03,25,2.50
2016,03,28,03,26,2.50
2016,03,28,03,27,2.60
2016,03,28,03,28,2.60
2016,03,28,03,29,2.60
2016,03,28,03,30,2.60
2016,03,28,03,31,2.60
2016,03,28,03,32,2.60
2016,03,28,03,33,2.60
2016,03,28,03,34,2.60
2016,03,28,03,35,2.60
2016,03,28,03,36,2.60
2016,03,28,03,37,2.70
2016,03,28,03,38,2.70
2016,03,28,03,39,2.70
2016,03,28,03,40,2.70
2016,03,28,03,41,2.70
2016,03,28,03,42,2.70
2016,03,28,03,43,2.70
2016,03,28,03,44,2.70
2016,03,28,03,45,2.70
2016,03,28,03,46,2.70
2016,03,28,03,47,2.70
2016,03,28,03,48,2.70
2016,03,28,03,49,2.70
2016,03,28,03,50,2.70
2016,03,28,03,51,2.70
2016,03,28,03,52,2.70
2016,03,28,03,53,2.70
2016,03,28,03,54,2.70
2016,03,28,03,55,2.80
2016,03,28,03,56,2.70
2016,03,28,03,57,2.80
2016,03,28,03,58,2.80
2016,03,28,03,59,2.80
2016,03,28,04,00,2.80
2016,03,28,04,01,2.80
2016,03,28,04,02,2.80
2016,03,28,04,03,2.80
2016,03,28,04,04,2.80
2016,03,28,04,05,2.80
2016,03,28,04,06,2.80
2016,03,28,04,07,2.80
2016,03,28,04,08,2.80
2016,03,28,04,09,2.90
2016,03,28,04,10,2.90
2016,03,28,04,11,2.90
2016,03,28,04,12,2.90
2016,03,28,04,13,2.90
2016,03,28,04,14,2.90
2016,03,28,04,15,2.90
2016,03,28,04,16,2.90
2016,03,28,04,17,3.00
2016,03,28,04,18,3.00
2016,03,28,04,19,3.00
2016,03,28,04,20,3.00
2016,03,28,04,21,3.00
2016,03,28,04,22,3.00
2016,03,28,04,23,3.00
2016,03,28,04,24,3.00
2016,03,28,04,25,3.00
2016,03,28,04,26,3.00
2016,03,28,04,27,3.10
2016,03,28,04,28,3.10
2016,03,28,04,29,3.10
2016,03,28,04,30,3.10
2016,03,28,04,31,3.10
2016,03,28,04,32,3.10
2016,03,28,04,33,3.10
2016,03,28,04,34,3.10
2016,03,28,04,35,3.10
2016,03,28,04,36,3.10
2016,03,28,04,37,3.10
2016,03,28,04,38,3.10
2016,03,28,04,39,3.10
2016,03,28,04,40,3.10
2016,03,28,04,41,3.10
2016,03,28,04,42,3.10
2016,03,28,04,43,3.10
2016,03,28,04,44,3.10
2016,03,28,04,45,3.20
2016,03,28,04,46,3.20
2016,03,28,04,47,3.20
2016,03,28,04,48,3.20
2016,03,28,04,49,3.20
2016,03,28,04,50,3.30
2016,03,28,04,51,3.30
2016,03,28,04,52,3.30
2016,03,28,04,53,3.30
2016,03,28,04,54,3.30
2016,03,28,04,55,3.30
2016,03,28,04,56,3.40
2016,03,28,04,57,3.40
2016,03,28,04,58,3.40
2016,03,28,04,59,3.50
2016,03,28,05,00,3.50
2016,03,28,05,01,3.50
2016,03,28,05,02,3.50
2016,03,28,05,03,3.50
2016,03,28,05,04,3.60
2016,03,28,05,05,3.60
2016,03,28,05,06,3.60
2016,03,28,05,07,3.60
2016,03,28,05,08,3.60
2016,03,28,05,09,3.60
2016,03,28,05,10,3.70
2016,03,28,05,11,3.70
2016,03,28,05,12,3.70
2016,03,28,05,13,3.70
2016,03,28,05,14,3.70
2016,03,28,05,15,3.70
2016,03,28,05,16,3.70
2016,03,28,05,17,3.80
2016,03,28,05,18,3.80
2016,03,28,05,19,3.80
2016,03,28,05,20,3.80
2016,03,28,05,21,3.80
2016,03,28,05,22,3.80
2016,03,28,05,23,3.90
2016,03,28,05,24,3.90
2016,03,28,05,25,3.90
2016,03,28,05,26,3.90
2016,03,28,05,27,3.90
2016,03,28,05,28,3.90
2016,03,28,05,29,3.90
2016,03,28,05,30,3.90
2016,03,28,05,31,4.00
2016,03,28,05,32,4.00
2016,03,28,05,33,4.00
2016,03,28,05,34,4.00
2016,03,28,05,35,4.00
2016,03,28,05,36,4.00
2016,03,28,05,37,4.00
2016,03,28,05,38,4.00
2016,03,28,05,39,4.00
2016,03,28,05,40,4.00
2016,03,28,05,41,4.00
2016,03,28,05,42,4.00
2016,03,28,05,43,4.00
2016,03,28,05,44,4.00
2016,03,28,05,45,4.00
2016,03,28,05,46,4.00
2016,03,28,05,47,4.00
2016,03,28,05,48,4.00
2016,03,28,05,49,4.00
2016,03,28,05,50,4.00
2016,03,28,05,51,4.00
2016,03,28,05,52,4.00
2016,03,28,05,53,3.90
2016,03,28,05,54,3.90
2016,03,28,05,55,3.90
2016,03,28,05,56,3.90
2016,03,28,05,57,3.90
2016,03,28,05,58,3.90
2016,03,28,05,59,3.90
2016,03,28,06,00,3.90
2016,03,28,06,01,3.90
2016,03,28,06,02,3.90
2016,03,28,06,03,3.90
2016,03,28,06,04,3.90
2016,03,28,06,05,3.90
2016,03,28,06,06,3.90
2016,03,28,06,07,3.90
2016,03,28,06,08,3.90
2016,03,28,06,09,3.80
2016,03,28,06,10,3.80
2016,03,28,06,11,3.80
2016,03,28,06,12,3.80
2016,03,28,06,13,3.90
2016,03,28,06,14,3.90
2016,03,28,06,15,3.90
2016,03,28,06,16,3.90
2016,03,28,06,17,3.90
2016,03,28,06,18,3.90
2016,03,28,06,19,3.90
2016,03,28,06,20,3.90
2016,03,28,06,21,3.90
2016,03,28,06,22,3.90
2016,03,28,06,23,3.90
2016,03,28,06,24,3.80
2016,03,28,06,25,3.90
2016,03,28,06,26,3.80
2016,03,28,06,27,3.80
2016,03,28,06,28,3.80
2016,03,28,06,29,3.80
2016,03,28,06,30,3.80
2016,03,28,06,31,3.80
2016,03,28,06,32,3.80
2016,03,28,06,33,3.80
2016,03,28,06,34,3.80
2016,03,28,06,35,3.80
2016,03,28,06,36,3.80
2016,03,28,06,37,3.80
2016,03,28,06,38,3.80
2016,03,28,06,39,3.80
2016,03,28,06,40,3.80
2016,03,28,06,41,3.80
2016,03,28,06,42,3.70
2016,03,28,06,43,3.70
2016,03,28,06,44,3.70
2016,03,28,06,45,3.70
2016,03,28,06,46,3.70
2016,03,28,06,47,3.70
2016,03,28,06,48,3.70
2016,03,28,06,49,3.70
2016,03,28,06,50,3.60
2016,03,28,06,51,3.60
2016,03,28,06,52,3.60
2016,03,28,06,53,3.50
2016,03,28,06,54,3.50
2016,03,28,06,55,3.50
2016,03,28,06,56,3.40
2016,03,28,06,57,3.40
2016,03,28,06,58,3.40
2016,03,28,06,59,3.40
2016,03,28,07,00,3.30
2016,03,28,07,01,3.30
2016,03,28,07,02,3.30
2016,03,28,07,03,3.30
2016,03,28,07,04,3.30
2016,03,28,07,05,3.20
2016,03,28,07,06,3.20
2016,03,28,07,07,3.20
2016,03,28,07,08,3.20
2016,03,28,07,09,3.20
2016,03,28,07,10,3.10
2016,03,28,07,11,3.10
2016,03,28,07,12,3.10
2016,03,28,07,13,3.10
2016,03,28,07,14,3.10
2016,03,28,07,15,3.10
2016,03,28,07,16,3.00
2016,03,28,07,17,3.00
2016,03,28,07,18,3.00
2016,03,28,07,19,3.00
2016,03,28,07,20,3.00
2016,03,28,07,21,3.00
2016,03,28,07,22,3.00
2016,03,28,07,23,3.00
2016,03,28,07,24,3.00
2016,03,28,07,25,3.00
2016,03,28,07,26,3.10
2016,03,28,07,27,3.00
2016,03,28,07,28,3.00
2016,03,28,07,29,3.00
2016,03,28,07,30,3.00
2016,03,28,07,31,3.00
2016,03,28,07,32,2.90
2016,03,28,07,33,2.90
2016,03,28,07,34,2.90
2016,03,28,07,35,2.90
2016,03,28,07,36,2.90
2016,03,28,07,37,2.90
2016,03,28,07,38,2.90
2016,03,28,07,39,2.90
2016,03,28,07,40,2.90
2016,03,28,07,41,2.90
2016,03,28,07,42,2.90
2016,03,28,07,43,2.90
2016,03,28,07,44,2.90
2016,03,28,07,45,2.90
2016,03,28,07,46,2.90
2016,03,28,07,47,2.90
2016,03,28,07,48,2.90
2016,03,28,07,49,2.90
2016,03,28,07,50,3.00
2016,03,28,07,51,3.00
2016,03,28,07,52,3.00
2016,03,28,07,53,3.00
2016,03,28,07,54,3.00
2016,03,28,07,55,3.00
2016,03,28,07,56,3.00
2016,03,28,07,57,3.00
2016,03,28,07,58,3.00
2016,03,28,07,59,3.00
2016,03,28,08,00,3.00
2016,03,28,08,01,3.00
2016,03,28,08,02,3.10
2016,03,28,08,03,3.10
2016,03,28,08,04,3.10
2016,03,28,08,05,3.10
2016,03,28,08,06,3.10
2016,03,28,08,07,3.10
2016,03,28,08,08,3.10
2016,03,28,08,09,3.10
2016,03,28,08,10,3.10
2016,03,28,08,11,3.20
2016,03,28,08,12,3.20
2016,03,28,08,13,3.30
2016,03,28,08,14,3.30
2016,03,28,08,15,3.40
2016,03,28,08,16,3.50
2016,03,28,08,17,3.50
2016,03,28,08,18,3.60
2016,03,28,08,19,3.70
2016,03,28,08,20,3.80
2016,03,28,08,21,3.90
2016,03,28,08,22,3.90
2016,03,28,08,23,4.00
2016,03,28,08,24,4.10
2016,03,28,08,25,4.20
2016,03,28,08,26,4.20
2016,03,28,08,27,4.30
2016,03,28,08,28,4.30
2016,03,28,08,29,4.40
2016,03,28,08,30,4.40
2016,03,28,08,31,4.50
2016,03,28,08,32,4.50
2016,03,28,08,33,4.60
2016,03,28,08,34,4.70
2016,03,28,08,35,4.70
2016,03,28,08,36,4.80
2016,03,28,08,37,4.80
2016,03,28,08,38,4.90
2016,03,28,08,39,5.00
2016,03,28,08,40,5.00
2016,03,28,08,41,5.10
2016,03,28,08,42,5.20
2016,03,28,08,43,5.20
2016,03,28,08,44,5.30
2016,03,28,08,45,5.30
2016,03,28,08,46,5.40
2016,03,28,08,47,5.40
2016,03,28,08,48,5.50
2016,03,28,08,49,5.50
2016,03,28,08,50,5.60
2016,03,28,08,51,5.60
2016,03,28,08,52,5.70
2016,03,28,08,53,5.70
2016,03,28,08,54,5.80
2016,03,28,08,55,5.80
2016,03,28,08,56,5.90
2016,03,28,08,57,5.90
2016,03,28,08,58,5.90
2016,03,28,08,59,6.00
2016,03,28,09,00,6.10
2016,03,28,09,01,6.10
2016,03,28,09,02,6.20
2016,03,28,09,03,6.20
2016,03,28,09,04,6.30
2016,03,28,09,05,6.30
2016,03,28,09,06,6.40
2016,03,28,09,07,6.50
2016,03,28,09,08,6.50
2016,03,28,09,09,6.60
2016,03,28,09,10,6.70
2016,03,28,09,11,6.70
2016,03,28,09,12,6.80
2016,03,28,09,13,6.90
2016,03,28,09,14,6.90
2016,03,28,09,15,7.00
2016,03,28,09,16,7.10
2016,03,28,09,17,7.10
2016,03,28,09,18,7.20
2016,03,28,09,19,7.20
2016,03,28,09,20,7.30
2016,03,28,09,21,7.40
2016,03,28,09,22,7.40
2016,03,28,09,23,7.40
2016,03,28,09,24,7.50
2016,03,28,09,25,7.50
2016,03,28,09,26,7.50
2016,03,28,09,27,7.60
2016,03,28,09,28,7.70
2016,03,28,09,29,7.70
2016,03,28,09,30,7.70
2016,03,28,09,31,7.70
2016,03,28,09,32,7.80
2016,03,28,09,33,7.80
2016,03,28,09,34,7.90
2016,03,28,09,35,7.90
2016,03,28,09,36,8.00
2016,03,28,09,37,8.00
2016,03,28,09,38,8.10
2016,03,28,09,39,8.10
2016,03,28,09,40,8.20
2016,03,28,09,41,8.30
2016,03,28,09,42,8.30
2016,03,28,09,43,8.40
2016,03,28,09,44,8.40
2016,03,28,09,45,8.40
2016,03,28,09,46,8.40
2016,03,28,09,47,8.40
2016,03,28,09,48,8.30
2016,03,28,09,49,8.30
2016,03,28,09,50,8.30
2016,03,28,09,51,8.40
2016,03,28,09,52,8.50
2016,03,28,09,53,8.50
2016,03,28,09,54,8.60
2016,03,28,09,55,8.60
2016,03,28,09,56,8.60
2016,03,28,09,57,8.70
2016,03,28,09,58,8.70
2016,03,28,09,59,8.80
2016,03,28,10,00,8.80
2016,03,28,10,01,8.90
2016,03,28,10,02,8.90
2016,03,28,10,03,9.00
2016,03,28,10,04,9.00
2016,03,28,10,05,9.00
2016,03,28,10,06,9.00
2016,03,28,10,07,9.00
2016,03,28,10,08,9.10
2016,03,28,10,09,9.10
2016,03,28,10,10,9.10
2016,03,28,10,11,9.20
2016,03,28,10,12,9.20
2016,03,28,10,13,9.20
2016,03,28,10,14,9.30
2016,03,28,10,15,9.30
2016,03,28,10,16,9.30
2016,03,28,10,17,9.40
2016,03,28,10,18,9.50
2016,03,28,10,19,9.60
2016,03,28,10,20,9.70
2016,03,28,10,21,9.70
2016,03,28,10,22,9.80
2016,03,28,10,23,9.80
2016,03,28,10,24,9.90
2016,03,28,10,25,10.00
2016,03,28,10,26,10.00
2016,03,28,10,27,10.00
2016,03,28,10,28,9.90
2016,03,28,10,29,9.90
2016,03,28,10,30,9.80
2016,03,28,10,31,9.80
2016,03,28,10,32,9.90
2016,03,28,10,33,9.90
2016,03,28,10,34,9.90
2016,03,28,10,35,9.90
2016,03,28,10,36,10.00
2016,03,28,10,37,10.00
2016,03,28,10,38,10.10
2016,03,28,10,39,10.10
2016,03,28,10,40,10.20
2016,03,28,10,41,10.20
2016,03,28,10,42,10.30
2016,03,28,10,43,10.30
2016,03,28,10,44,10.40
2016,03,28,10,45,10.40
2016,03,28,10,46,10.50
2016,03,28,10,47,10.50
2016,03,28,10,48,10.40
2016,03,28,10,49,10.40
2016,03,28,10,50,10.40
2016,03,28,10,51,10.40
2016,03,28,10,52,10.50
2016,03,28,10,53,10.40
2016,03,28,10,54,10.40
2016,03,28,10,55,10.40
2016,03,28,10,56,10.50
2016,03,28,10,57,10.50
2016,03,28,10,58,10.60
2016,03,28,10,59,10.60
2016,03,28,11,00,10.70
2016,03,28,11,01,10.70
2016,03,28,11,02,10.70
2016,03,28,11,03,10.70
2016,03,28,11,04,10.70
2016,03,28,11,05,10.80
2016,03,28,11,06,11.00
2016,03,28,11,07,11.00
2016,03,28,11,08,11.10
2016,03,28,11,09,11.10
2016,03,28,11,10,11.20
2016,03,28,11,11,11.10
2016,03,28,11,12,11.00
2016,03,28,11,13,11.00
2016,03,28,11,14,11.00
2016,03,28,11,15,11.00
2016,03,28,11,16,10.90
2016,03,28,11,17,10.90
2016,03,28,11,18,10.90
2016,03,28,11,19,10.90
2016,03,28,11,20,10.90
2016,03,28,11,21,11.00
2016,03,28,11,22,11.10
2016,03,28,11,23,11.30
2016,03,28,11,24,11.40
2016,03,28,11,25,11.50
2016,03,28,11,26,11.50
2016,03,28,11,27,11.60
2016,03,28,11,28,11.70
2016,03,28,11,29,11.70
2016,03,28,11,30,11.70
2016,03,28,11,31,11.80
2016,03,28,11,32,11.80
2016,03,28,11,33,11.90
2016,03,28,11,34,11.90
2016,03,28,11,35,12.00
2016,03,28,11,36,12.00
2016,03,28,11,37,12.00
2016,03,28,11,38,11.90
2016,03,28,11,39,11.80
2016,03,28,11,40,11.80
2016,03,28,11,41,11.80
2016,03,28,11,42,11.90
2016,03,28,11,43,12.00
2016,03,28,11,44,12.00
2016,03,28,11,45,12.00
2016,03,28,11,46,11.80
2016,03,28,11,47,11.80
2016,03,28,11,48,11.80
2016,03,28,11,49,11.80
2016,03,28,11,50,11.80
2016,03,28,11,51,11.80
2016,03,28,11,52,11.90
2016,03,28,11,53,11.90
2016,03,28,11,54,12.00
2016,03,28,11,55,12.10
2016,03,28,11,56,12.20
2016,03,28,11,57,12.20
2016,03,28,11,58,12.20
2016,03,28,11,59,12.30
2016,03,28,12,00,12.30
2016,03,28,12,01,12.40
2016,03,28,12,02,12.40
2016,03,28,12,03,12.40
2016,03,28,12,04,12.50
2016,03,28,12,05,12.50
2016,03,28,12,06,12.50
2016,03,28,12,07,12.60
2016,03,28,12,08,12.50
2016,03,28,12,09,12.50
2016,03,28,12,10,12.50
2016,03,28,12,11,12.50
2016,03,28,12,12,12.50
2016,03,28,12,13,12.50
2016,03,28,12,14,12.60
2016,03,28,12,15,12.70
2016,03,28,12,16,12.70
2016,03,28,12,17,12.60
2016,03,28,12,18,12.60
2016,03,28,12,19,12.70
2016,03,28,12,20,12.70
2016,03,28,12,21,12.70
2016,03,28,12,22,12.70
2016,03,28,12,23,12.70
2016,03,28,12,24,12.70
2016,03,28,12,25,12.70
2016,03,28,12,26,12.70
2016,03,28,12,27,12.70
2016,03,28,12,28,12.80
2016,03,28,12,29,12.80
2016,03,28,12,30,12.80
2016,03,28,12,31,12.90
2016,03,28,12,32,13.00
2016,03,28,12,33,13.00
2016,03,28,12,34,13.00
2016,03,28,12,35,12.80
2016,03,28,12,36,12.80
2016,03,28,12,37,12.80
2016,03,28,12,38,12.80
2016,03,28,12,39,12.80
2016,03,28,12,40,12.90
2016,03,28,12,41,12.90
2016,03,28,12,42,12.80
2016,03,28,12,43,12.80
2016,03,28,12,44,12.70
2016,03,28,12,45,12.70
2016,03,28,12,46,12.70
2016,03,28,12,47,12.60
2016,03,28,12,48,12.60
2016,03,28,12,49,12.50
2016,03,28,12,50,12.50
2016,03,28,12,51,12.50
2016,03,28,12,52,12.50
2016,03,28,12,53,12.60
2016,03,28,12,54,12.60
2016,03,28,12,55,12.60
2016,03,28,12,56,12.70
2016,03,28,12,57,12.70
2016,03,28,12,58,12.80
2016,03,28,12,59,12.80
2016,03,28,13,00,12.80
2016,03,28,13,01,12.70
2016,03,28,13,02,12.60
2016,03,28,13,03,12.60
2016,03,28,13,04,12.50
2016,03,28,13,05,12.40
2016,03,28,13,06,12.40
2016,03,28,13,07,12.40
2016,03,28,13,08,12.40
2016,03,28,13,09,12.40
2016,03,28,13,10,12.50
2016,03,28,13,11,12.50
2016,03,28,13,12,12.60
2016,03,28,13,13,12.60
2016,03,28,13,14,12.60
2016,03,28,13,15,12.50
2016,03,28,13,16,12.40
2016,03,28,13,17,12.30
2016,03,28,13,18,12.30
2016,03,28,13,19,12.30
2016,03,28,13,20,12.20
2016,03,28,13,21,12.10
2016,03,28,13,22,12.00
2016,03,28,13,23,11.90
2016,03,28,13,24,11.80
2016,03,28,13,25,11.80
2016,03,28,13,26,11.80
2016,03,28,13,27,11.80
2016,03,28,13,28,11.80
2016,03,28,13,29,11.70
2016,03,28,13,30,11.80
2016,03,28,13,31,11.80
2016,03,28,13,32,11.80
2016,03,28,13,33,11.90
2016,03,28,13,34,12.10
2016,03,28,13,35,12.20
2016,03,28,13,36,12.30
2016,03,28,13,37,12.40
2016,03,28,13,38,12.40
2016,03,28,13,39,12.50
2016,03,28,13,40,12.50
2016,03,28,13,41,12.50
2016,03,28,13,42,12.40
2016,03,28,13,43,12.30
2016,03,28,13,44,12.20
2016,03,28,13,45,12.10
2016,03,28,13,46,11.90
2016,03,28,13,47,12.00
2016,03,28,13,48,12.00
2016,03,28,13,49,12.00
2016,03,28,13,50,12.00
2016,03,28,13,51,12.00
2016,03,28,13,52,12.10
2016,03,28,13,53,12.20
2016,03,28,13,54,12.40
2016,03,28,13,55,12.50
2016,03,28,13,56,12.70
2016,03,28,13,57,12.90
2016,03,28,13,58,13.00
2016,03,28,13,59,13.10
2016,03,28,14,00,13.20
2016,03,28,14,01,13.30
2016,03,28,14,02,13.30
2016,03,28,14,03,13.30
2016,03,28,14,04,13.40
2016,03,28,14,05,13.50
2016,03,28,14,06,13.60
2016,03,28,14,07,13.70
2016,03,28,14,08,13.70
2016,03,28,14,09,13.60
2016,03,28,14,10,13.60
2016,03,28,14,11,13.50
2016,03,28,14,12,13.40
2016,03,28,14,13,13.30
2016,03,28,14,14,13.20
2016,03,28,14,15,13.20
2016,03,28,14,16,13.20
2016,03,28,14,17,13.20
2016,03,28,14,18,13.30
2016,03,28,14,19,13.30
2016,03,28,14,20,13.30
2016,03,28,14,21,13.30
2016,03,28,14,22,13.30
2016,03,28,14,23,13.30
2016,03,28,14,24,13.30
2016,03,28,14,25,13.30
2016,03,28,14,26,13.40
2016,03,28,14,27,13.40
2016,03,28,14,28,13.40
2016,03,28,14,29,13.30
2016,03,28,14,30,13.30
2016,03,28,14,31,13.30
2016,03,28,14,32,13.30
2016,03,28,14,33,13.40
2016,03,28,14,34,13.40
2016,03,28,14,35,13.60
2016,03,28,14,36,13.60
2016,03,28,14,37,13.60
2016,03,28,14,38,13.70
2016,03,28,14,39,13.70
2016,03,28,14,40,13.70
2016,03,28,14,41,13.80
2016,03,28,14,42,13.80
2016,03,28,14,43,13.90
2016,03,28,14,44,13.90
2016,03,28,14,45,13.90
2016,03,28,14,46,13.80
2016,03,28,14,47,13.70
2016,03,28,14,48,13.60
2016,03,28,14,49,13.50
2016,03,28,14,50,13.30
2016,03,28,14,51,13.30
2016,03,28,14,52,13.20
2016,03,28,14,53,13.10
2016,03,28,14,54,13.10
2016,03,28,14,55,13.00
2016,03,28,14,56,12.90
2016,03,28,14,57,12.90
2016,03,28,14,58,12.90
2016,03,28,14,59,12.90
2016,03,28,15,00,12.80
2016,03,28,15,01,12.70
2016,03,28,15,02,12.60
2016,03,28,15,03,12.50
2016,03,28,15,04,12.30
2016,03,28,15,05,12.20
2016,03,28,15,06,12.00
2016,03,28,15,07,12.00
2016,03,28,15,08,11.90
2016,03,28,15,09,11.80
2016,03,28,15,10,11.80
2016,03,28,15,11,11.80
2016,03,28,15,12,11.80
2016,03,28,15,13,11.80
2016,03,28,15,14,11.80
2016,03,28,15,15,11.80
2016,03,28,15,16,11.90
2016,03,28,15,17,12.00
2016,03,28,15,18,12.10
2016,03,28,15,19,12.20
2016,03,28,15,20,12.30
2016,03,28,15,21,12.30
2016,03,28,15,22,12.50
2016,03,28,15,23,12.50
2016,03,28,15,24,12.60
2016,03,28,15,25,12.70
2016,03,28,15,26,12.80
2016,03,28,15,27,12.90
2016,03,28,15,28,13.00
2016,03,28,15,29,13.10
2016,03,28,15,30,13.20
2016,03,28,15,31,13.20
2016,03,28,15,32,13.10
2016,03,28,15,33,13.10
2016,03,28,15,34,13.10
2016,03,28,15,35,13.10
2016,03,28,15,36,13.10
2016,03,28,15,37,13.20
2016,03,28,15,38,13.20
2016,03,28,15,39,13.20
2016,03,28,15,40,13.20
2016,03,28,15,41,13.30
2016,03,28,15,42,13.20
2016,03,28,15,43,13.30
2016,03,28,15,44,13.30
2016,03,28,15,45,13.30
2016,03,28,15,46,13.40
2016,03,28,15,47,13.40
2016,03,28,15,48,13.40
2016,03,28,15,49,13.40
2016,03,28,15,50,13.40
2016,03,28,15,51,13.40
2016,03,28,15,52,13.50
2016,03,28,15,53,13.50
2016,03,28,15,54,13.50
2016,03,28,15,55,13.50
2016,03,28,15,56,13.50
2016,03,28,15,57,13.50
2016,03,28,15,58,13.50
2016,03,28,15,59,13.50
2016,03,28,16,00,13.50
2016,03,28,16,01,13.50
2016,03,28,16,02,13.60
2016,03,28,16,03,13.70
2016,03,28,16,04,13.70
2016,03,28,16,05,13.80
2016,03,28,16,06,13.80
2016,03,28,16,07,13.80
2016,03,28,16,08,13.80
2016,03,28,16,09,13.80
2016,03,28,16,10,13.90
2016,03,28,16,11,13.90
2016,03,28,16,12,14.00
2016,03,28,16,13,14.10
2016,03,28,16,14,14.10
2016,03,28,16,15,14.20
2016,03,28,16,16,14.20
2016,03,28,16,17,14.30
2016,03,28,16,18,14.40
2016,03,28,16,19,14.40
2016,03,28,16,20,14.40
2016,03,28,16,21,14.40
2016,03,28,16,22,14.40
2016,03,28,16,23,14.40
2016,03,28,16,24,14.50
2016,03,28,16,25,14.50
2016,03,28,16,26,14.50
2016,03,28,16,27,14.50
2016,03,28,16,28,14.50
2016,03,28,16,29,14.60
2016,03,28,16,30,14.60
2016,03,28,16,31,14.60
2016,03,28,16,32,14.70
2016,03,28,16,33,14.80
2016,03,28,16,34,14.80
2016,03,28,16,35,14.80
2016,03,28,16,36,14.80
2016,03,28,16,37,14.80
2016,03,28,16,38,14.80
2016,03,28,16,39,14.70
2016,03,28,16,40,14.70
2016,03,28,16,41,14.60
2016,03,28,16,42,14.60
2016,03,28,16,43,14.60
2016,03,28,16,44,14.60
2016,03,28,16,45,14.70
2016,03,28,16,46,14.70
2016,03,28,16,47,14.80
2016,03,28,16,48,14.80
2016,03,28,16,49,14.90
2016,03,28,16,50,14.90
2016,03,28,16,51,14.90
2016,03,28,16,52,14.80
2016,03,28,16,53,14.80
2016,03,28,16,54,14.80
2016,03,28,16,55,14.70
2016,03,28,16,56,14.70
2016,03,28,16,57,14.70
2016,03,28,16,58,14.80
2016,03,28,16,59,14.80
2016,03,28,17,00,14.70
2016,03,28,17,01,14.70
2016,03,28,17,02,14.70
2016,03,28,17,03,14.60
2016,03,28,17,04,14.70
2016,03,28,17,05,14.70
2016,03,28,17,06,14.70
2016,03,28,17,07,14.70
2016,03,28,17,08,14.80
2016,03,28,17,09,14.80
2016,03,28,17,10,14.80
2016,03,28,17,11,14.80
2016,03,28,17,12,14.80
2016,03,28,17,13,14.80
2016,03,28,17,14,14.80
2016,03,28,17,15,14.70
2016,03,28,17,16,14.70
2016,03,28,17,17,14.70
2016,03,28,17,18,14.60
2016,03,28,17,19,14.50
2016,03,28,17,20,14.50
2016,03,28,17,21,14.40
2016,03,28,17,22,14.40
2016,03,28,17,23,14.40
2016,03,28,17,24,14.40
2016,03,28,17,25,14.40
2016,03,28,17,26,14.40
2016,03,28,17,27,14.40
2016,03,28,17,28,14.40
2016,03,28,17,29,14.40
2016,03,28,17,30,14.40
2016,03,28,17,31,14.30
2016,03,28,17,32,14.30
2016,03,28,17,33,14.20
2016,03,28,17,34,14.10
2016,03,28,17,35,14.10
2016,03,28,17,36,14.00
2016,03,28,17,37,14.00
2016,03,28,17,38,14.00
2016,03,28,17,39,13.90
2016,03,28,17,40,13.90
2016,03,28,17,41,13.90
2016,03,28,17,42,13.90
2016,03,28,17,43,14.00
2016,03,28,17,44,14.00
2016,03,28,17,45,14.10
2016,03,28,17,46,14.20